This is the latest recevied weather packets stored in our database for station/object KA3ZXO. If no packets are shown the sender has not sent any weather packets the latest 10 day(s).
| Time | Temp. | Humidity | Pressure | Rain* | Wind** | Luminosity | Snow |
|---|---|---|---|---|---|---|---|
| 1778013732 | 30.56° C | 31% | 1010.3 hPa | 0 mm | - | 294 W/m² | - |
| 1778013132 | 29.44° C | 32% | 1010.4 hPa | 0 mm | - | 397 W/m² | - |
| 1778012530 | 29.44° C | 32% | 1010.4 hPa | 0 mm | - | 430 W/m² | - |
| 1778011924 | 29.44° C | 33% | 1010.5 hPa | 0 mm | - | 421 W/m² | - |
| 1778011325 | 30° C | 33% | 1010.9 hPa | 0 mm | - | 483 W/m² | - |
| 1778010724 | 29.44° C | 33% | 1010.9 hPa | 0 mm | - | 476 W/m² | - |
| 1778010123 | 29.44° C | 34% | 1011.1 hPa | 0 mm | - | 510 W/m² | - |
| 1778009522 | 30° C | 33% | 1011.2 hPa | 0 mm | - | 539 W/m² | - |
| 1778008918 | 30° C | 34% | 1011.4 hPa | 0 mm | - | 545 W/m² | - |
| 1778008314 | 29.44° C | 34% | 1011.7 hPa | 0 mm | - | 590 W/m² | - |
| 1778007709 | 30° C | 34% | 1011.6 hPa | 0 mm | - | 588 W/m² | - |
| 1778007109 | 29.44° C | 35% | 1011.8 hPa | 0 mm | - | 598 W/m² | - |
| 1778006508 | 29.44° C | 34% | 1011.8 hPa | 0 mm | - | 627 W/m² | - |
| 1778005909 | 28.89° C | 35% | 1012 hPa | 0 mm | - | 632 W/m² | - |
| 1778005308 | 28.33° C | 36% | 1012.2 hPa | 0 mm | - | 660 W/m² | - |
| 1778004708 | 28.33° C | 38% | 1012.3 hPa | 0 mm | - | 678 W/m² | - |
| 1778004107 | 27.78° C | 37% | 1012.5 hPa | 0 mm | - | 96 W/m² | - |
| 1778003505 | 27.78° C | 38% | 1012.3 hPa | 0 mm | - | 71 W/m² | - |
| 1778002904 | 27.78° C | 39% | 1012.3 hPa | 0 mm | - | 290 W/m² | - |
| 1778002304 | 27.22° C | 41% | 1012.4 hPa | 0 mm | - | 63 W/m² | - |
| 1778001703 | 27.22° C | 42% | 1012.4 hPa | 0 mm | - | 44 W/m² | - |
| 1778001101 | 26.67° C | 41% | 1012.6 hPa | 0 mm | - | 47 W/m² | - |
| 1778000500 | 26.67° C | 43% | 1012.8 hPa | 0 mm | - | 52 W/m² | - |
| 1777999897 | 26.67° C | 42% | 1013 hPa | 0 mm | - | 141 W/m² | - |
| 1777999296 | 25.56° C | 44% | 1013 hPa | 0 mm | - | 280 W/m² | - |
* Rain latest hour (hover to see other rain measurements)
** Current wind speed in m/s (hover to see current wind gust speed)